{"data":{"norad_id":59282,"intl_designator":"2024-052C","name":"YUNHAI-2 02C","alt_names":[],"object_type":"PAYLOAD","status":"ACTIVE","operator":null,"country":"PRC","launch_date":"2024-03-21","launch_site_code":"JSC","launch_vehicle":null,"mission":null,"orbit_class":"UNKNOWN","rcs_meters":null,"size_class":null,"mass_kg":null,"dimensions":null,"purposes":[],"wikipedia_slug":null,"has_3d_model":false,"image_url":null,"decayed_at":null,"tle_current":{"epoch":"2026-05-25T05:47:51.598752Z","epoch_age_seconds":64291,"freshness":"FRESH","line1":"1 59282U 24052C   26145.24156943 -.00000017  00000+0  57673-4 0  9991","line2":"2 59282  50.0084 239.6655 0006306  83.5543 276.6089 14.27954860111528","mean_motion":14.2795486,"eccentricity":0.0006306,"inclination_deg":50.0084,"raan_deg":239.6655,"arg_perigee_deg":83.5543,"mean_anomaly_deg":276.6089,"bstar":5.7673e-5,"rev_number":11152,"period_min":100.84352386321,"perigee_km":794.04942531751,"apogee_km":803.10069456751,"semimajor_km":7176.7120599425,"source":"CELESTRAK","updated_at":"2026-05-25T13:38:01.312891Z"}}}